Lapse_Rate
1.8 5.4 6.7 8.0 6.5 6.5 6.5 6.5 6.5 6.5 6.5 7.2 7.5 6.9 6.6 7.0 6.5 6.5 9.1 9.5 8.6 7.3 6.8 5.1 4.6 4.5 4.6 4.9 5.1 5.1 5.1 5.3 5.4 5.3 5.3 5.3 5.5 5.5 5.3 5.4 5.7 6.0 6.2 6.4 6.3 5.8 5.2 4.5 4.1
4.8 6.9 8.7 7.5 6.5 6.5 6.5 6.5 6.5 6.5 6.9 7.5 7.4 7.2 6.9 6.5 8.0 8.3 8.7 9.5 9.7 9.1 7.1 4.9 3.9 4.2 4.4 4.6 4.8 5.0 5.3 5.3 5.3 5.3 5.3 5.4 5.3 5.1 5.1 5.1 5.2 5.5 5.6 5.4 5.6 5.1 4.8 4.4 4.2
3.7 7.8 7.2 6.5 6.5 6.5 6.5 6.5 6.5 6.8 7.3 7.2 7.0 7.7 7.3 7.0 8.2 8.5 9.3 9.6 9.6 7.6 5.1 3.5 3.4 3.5 3.6 3.5 3.7 4.2 4.5 4.8 4.9 5.2 5.4 5.2 5.0 5.1 4.9 4.8 4.8 5.0 5.2 5.2 5.0 4.7 4.5 4.3 4.2
6.7 7.9 7.4 6.5 6.5 6.5 6.5 6.5 6.7 6.6 7.2 7.5 7.4 6.6 7.9 8.7 8.5 9.1 9.6 9.7 9.3 6.6 4.1 2.7 2.8 3.0 3.1 3.4 3.7 3.8 4.1 4.4 4.6 4.8 4.9 4.9 5.0 5.0 4.8 4.7 4.7 4.8 4.7 4.6 4.5 4.3 4.2 4.1 4.0
8.1 7.6 6.5 6.5 6.5 6.5 6.5 6.8 6.9 6.5 6.8 7.0 7.4 6.7 7.2 8.5 9.3 9.5 9.4 9.6 8.9 6.5 4.5 3.2 2.9 3.1 3.3 3.5 3.4 3.5 3.9 4.3 4.5 4.6 4.6 4.8 4.8 4.8 4.5 4.4 4.3 4.3 4.2 4.1 4.0 3.8 3.7 3.5 3.4
6.9 6.6 6.5 6.5 6.5 6.5 6.5 7.1 7.0 6.8 7.0 7.2 7.0 7.0 7.4 8.9 9.0 9.2 9.5 9.3 9.5 8.0 5.3 4.4 3.0 3.2 3.4 3.5 3.7 4.0 4.3 4.3 4.4 4.5 4.5 4.6 4.5 4.5 4.3 4.4 4.3 4.2 4.0 3.9 3.9 3.7 3.6 3.4 3.4
6.6 6.5 6.5 6.5 6.5 6.5 6.5 7.3 6.7 6.7 6.8 6.8 7.7 6.5 7.6 8.4 9.1 9.3 9.2 9.3 9.2 9.1 7.5 5.8 4.1 4.0 4.0 3.9 3.7 3.8 3.9 4.0 4.2 4.3 4.4 4.3 4.5 4.9 4.5 4.4 4.4 4.2 3.9 3.8 3.8 3.6 3.5 3.5 3.3
7.3 6.5 6.5 6.5 6.5 6.5 6.7 7.0 7.4 7.0 6.8 8.1 8.1 6.6 6.8 8.2 9.1 9.1 9.0 9.2 9.2 8.9 9.3 8.3 6.9 6.2 5.3 4.0 4.1 3.8 3.9 4.1 4.3 4.6 4.9 5.0 5.4 5.4 5.6 5.4 4.9 4.5 4.2 4.1 4.1 3.9 3.8 3.9 3.7
8.0 6.5 6.5 6.5 6.5 6.5 7.0 6.6 7.5 7.9 7.3 7.6 7.9 7.8 8.2 8.9 9.2 8.7 8.4 8.8 8.7 8.9 8.5 8.5 9.1 9.1 8.5 5.8 5.1 4.5 4.6 5.0 5.1 5.3 5.5 5.5 6.5 6.0 5.8 6.7 6.1 5.2 4.9 4.6 4.5 4.8 4.9 5.0 4.6
6.7 6.5 6.5 6.5 6.5 6.5 6.8 6.8 7.0 6.9 7.0 7.1 7.5 8.3 8.5 8.8 8.6 8.3 8.2 8.2 8.2 8.1 8.4 8.3 8.3 8.4 8.8 9.6 6.1 6.0 6.9 5.9 6.5 7.7 8.0 8.6 8.7 9.2 8.8 7.5 6.0 5.6 5.5 5.2 5.3 5.3 5.3 5.0 6.1
6.7 6.5 6.5 6.7 6.9 7.1 6.8 6.8 7.4 6.8 6.5 7.1 7.1 7.6 8.2 8.4 8.3 8.3 8.3 8.4 8.4 8.5 8.4 8.1 7.3 9.0 8.8 8.5 8.7 8.8 8.8 9.1 8.9 8.8 8.6 9.2 8.9 8.8 8.8 7.9 6.3 5.5 4.9 5.7 5.6 5.8 4.7 8.0 8.5
6.5 6.7 6.8 6.9 7.2 7.0 6.6 7.2 6.8 7.0 6.9 7.9 7.9 8.1 8.2 8.1 8.1 8.2 8.2 8.4 8.2 8.3 8.3 7.9 7.6 7.5 7.8 8.1 8.4 8.5 8.1 8.5 8.6 8.5 9.1 8.3 8.2 8.0 8.2 8.2 8.8 8.8 9.2 8.6 8.7 8.6 8.7 8.8 8.6
6.5 6.6 7.0 7.2 7.2 7.1 7.3 6.8 6.7 6.9 7.7 8.1 8.2 8.2 8.0 8.1 8.2 8.4 8.5 8.3 8.1 7.9 7.9 7.9 7.2 7.0 8.2 7.6 8.3 8.3 8.2 7.8 8.1 9.2 8.7 7.7 7.2 6.2 7.5 8.1 8.6 8.7 9.0 8.6 7.8 7.9 7.9 7.6 8.1
6.9 6.8 6.8 7.1 7.0 7.1 6.7 6.7 7.0 7.2 7.8 7.8 7.9 7.8 8.0 8.1 8.2 8.2 8.2 8.1 7.8 8.0 8.0 7.4 7.7 7.1 8.1 8.1 7.8 7.9 8.5 8.5 8.6 8.8 8.4 8.0 7.7 7.1 6.9 6.6 7.0 7.8 8.9 8.8 8.2 7.4 6.7 6.4 7.7
7.0 6.5 6.5 6.6 6.9 6.6 7.1 6.5 6.5 7.4 7.7 7.5 7.6 7.8 7.9 8.1 8.4 8.1 8.2 8.2 8.4 7.8 8.4 4.3 2.3 7.7 7.2 8.4 8.2 8.6 8.6 8.7 8.9 8.8 8.7 9.0 8.3 7.4 7.0 6.1 6.0 7.6 8.4 8.0 7.9 7.8 7.9 6.2 7.2
6.5 6.5 6.5 6.5 6.6 6.8 6.8 6.5 6.5 7.5 7.4 7.2 7.4 7.5 7.7 8.0 8.3 8.3 8.3 8.7 8.8 8.5 6.6 7.9 8.4 7.4 6.8 8.2 8.0 8.7 8.2 8.7 8.9 9.1 9.0 8.9 8.9 8.8 7.8 6.3 5.9 8.1 7.8 7.2 5.9 5.7 6.1 6.2 6.1
6.5 6.5 6.5 6.5 6.7 6.5 6.5 6.5 6.6 7.4 7.2 7.0 7.2 7.4 7.5 7.7 8.0 8.1 8.4 8.6 9.0 8.5 7.9 8.2 7.3 8.1 7.8 8.0 8.9 8.3 8.6 8.1 8.5 8.5 8.9 8.0 8.5 8.5 7.7 6.5 6.4 7.4 6.8 5.5 5.8 6.6 6.3 6.3 6.2
6.5 6.5 6.5 6.5 6.5 6.5 6.5 6.5 6.5 7.1 7.1 6.9 7.2 7.2 7.3 7.5 7.8 8.0 7.5 7.0 7.7 7.0 8.1 8.3 6.7 5.8 6.1 7.7 7.6 7.5 7.4 7.8 8.8 8.7 7.7 7.8 8.0 8.1 7.8 7.2 7.2 8.0 6.3 6.1 6.1 6.1 6.0 5.9 6.0
6.5 6.5 6.5 6.5 6.5 6.5 6.5 6.5 6.5 6.8 6.9 6.8 7.0 7.2 7.2 7.3 7.6 7.9 7.9 7.4 7.7 8.2 7.0 7.2 5.4 6.8 7.4 7.6 6.8 6.1 5.9 6.1 6.8 7.9 8.1 8.3 8.8 8.0 7.2 7.0 7.1 6.9 6.2 6.2 6.2 6.3 6.2 6.5 6.2
6.5 6.5 6.5 6.5 6.5 6.5 6.5 6.5 6.5 6.6 6.7 7.0 7.0 7.0 7.2 7.6 8.0 8.3 8.1 7.4 7.3 7.5 7.6 7.7 7.9 7.5 7.2 7.4 7.6 7.5 7.4 7.7 7.7 7.9 8.4 8.7 7.8 8.1 8.2 7.6 6.9 7.2 6.8 6.5 6.2 6.4 6.8 6.7 6.3
6.5 6.5 6.5 6.5 6.5 6.5 6.5 6.5 6.5 6.5 6.9 7.1 7.3 7.5 7.6 7.6 7.7 8.1 8.3 8.0 7.6 7.5 7.6 8.4 8.4 8.1 6.9 6.1 7.6 7.1 7.0 7.1 7.2 6.5 6.2 7.5 8.0 8.4 8.9 8.2 7.5 6.7 6.6 6.4 5.8 6.3 6.4 7.0 6.8
6.5 6.5 6.5 6.5 6.5 6.5 6.5 6.5 6.5 6.5 6.5 6.6 7.0 7.1 7.3 7.6 8.0 8.2 8.1 8.2 7.9 7.8 8.0 8.5 8.8 8.8 8.4 7.5 7.0 6.4 7.5 7.2 7.1 7.5 7.3 7.3 8.4 8.4 8.1 7.8 7.8 6.8 6.5 6.3 6.7 8.4 6.6 6.3 6.4
6.5 6.5 6.5 6.5 6.5 6.5 6.5 6.5 6.5 6.5 6.5 6.5 6.8 7.2 7.4 7.6 7.8 7.9 8.2 8.4 8.6 8.2 8.2 8.4 8.6 8.8 8.3 8.2 8.0 7.9 7.8 7.6 7.8 7.5 7.1 7.1 7.4 7.6 7.8 8.5 7.6 6.7 7.0 7.3 7.3 6.4 6.0 5.7 5.6
6.5 6.5 6.5 6.5 6.5 6.5 6.5 6.5 6.5 6.5 6.5 6.5 6.8 7.2 7.5 7.7 7.9 8.2 8.5 8.5 8.3 8.3 8.3 8.5 8.6 8.7 8.7 8.3 8.2 8.2 7.8 7.5 7.4 7.4 7.4 7.2 7.0 7.3 8.2 8.6 8.1 8.2 7.3 6.1 5.4 5.0 5.1 5.1 5.6
6.5 6.5 6.5 6.5 6.5 6.5 6.5 6.5 6.5 6.5 6.5 6.5 6.7 7.1 7.5 7.7 7.7 7.9 8.1 8.2 8.3 8.4 8.5 8.6 8.5 8.6 8.3 7.9 7.8 7.5 7.1 7.4 7.4 7.5 7.3 7.1 7.7 8.1 7.8 8.3 7.9 7.4 6.5 5.7 5.3 4.7 4.6 4.7 5.5
6.5 6.5 6.5 6.5 6.5 6.5 6.5 6.5 6.5 6.5 6.9 7.1 7.3 7.4 7.6 7.7 7.9 8.0 8.3 8.4 8.3 8.2 8.2 8.2 8.5 8.6 8.4 7.7 7.6 7.8 8.0 7.7 7.8 7.5 7.4 7.7 7.9 8.1 8.5 7.7 8.2 6.7 6.9 7.0 6.7 6.3 6.2 6.0 6.0
6.5 6.5 6.5 6.5 6.5 6.5 6.5 6.5 6.5 6.5 6.5 6.9 7.0 7.3 7.4 7.7 7.9 8.0 8.3 7.9 7.9 8.1 7.8 8.1 8.4 8.7 8.3 8.0 7.9 7.8 7.5 7.5 7.2 7.5 7.7 7.8 8.0 8.8 8.4 8.5 7.4 7.2 7.2 6.8 7.0 7.0 6.8 6.9 7.1
6.5 6.5 6.5 6.5 6.5 6.5 6.5 6.5 6.5 6.5 6.5 6.5 6.7 6.9 7.3 7.7 7.8 7.9 8.0 7.7 8.0 8.1 7.8 7.6 7.9 8.3 8.3 8.1 7.5 7.9 8.0 8.2 7.9 7.8 7.8 7.3 7.2 8.0 8.2 8.2 7.9 7.7 7.7 7.7 7.2 7.3 6.8 7.5 6.6
6.5 6.5 6.5 6.5 6.5 6.5 6.5 6.5 6.5 6.5 6.5 6.5 6.7 7.1 7.3 7.5 7.7 7.8 8.0 8.2 8.1 7.9 7.4 7.7 8.1 8.3 8.2 8.3 8.4 7.9 8.0 8.1 8.0 7.5 7.1 7.0 7.1 8.0 8.2 8.7 7.9 7.5 7.1 7.6 7.6 7.1 6.9 7.4 7.3
6.5 6.5 6.5 6.5 6.5 6.5 6.5 6.5 6.5 6.5 6.7 6.9 6.9 7.3 7.6 7.7 7.8 8.0 8.2 8.3 8.1 8.1 8.4 8.5 8.2 8.2 8.4 8.3 8.2 8.2 8.1 8.3 7.6 7.5 7.5 7.7 8.2 8.6 8.7 8.7 8.6 8.3 7.9 7.7 7.5 7.5 7.4 7.4 7.8
Wind_Speed
11 15 8 6 6 6 15 7 13 9 10 12 15 15 20 16 10 9 13 12 21 17 19 17 17 16 15 15 16 17 17 16 17 17 16 15 13 11 11 11 12 12 12 11 10 10 9 9 10
11 12 5 5 7 11 4 10 13 16 15 9 9 8 21 18 19 16 14 14 16 20 21 18 19 18 17 16 16 16 16 15 15 13 13 11 11 10 10 10 10 11 11 10 10 9 8 10 11
8 11 3 4 9 14 11 11 15 12 8 9 5 19 14 14 15 14 14 14 17 19 21 19 19 18 17 16 16 15 14 13 13 11 11 11 11 10 11 10 10 10 10 10 9 8 7 8 9
4 3 4 7 12 12 16 16 14 9 3 4 15 13 15 15 16 16 15 16 18 18 19 18 18 17 16 16 14 14 13 13 12 12 12 11 10 10 10 11 12 11 11 11 10 9 9 9 9
6 4 8 11 9 12 13 13 8 6 7 8 5 18 16 19 18 14 14 14 17 15 17 15 17 17 16 15 14 14 13 12 11 11 10 10 10 9 10 10 10 10 10 9 9 9 8 8 8
5 3 8 8 12 11 10 6 3 18 10 9 12 17 14 16 15 13 13 13 14 14 16 15 15 15 14 14 13 12 12 12 10 9 8 8 8 7 8 8 9 8 8 8 7 6 6 7 7
10 8 17 12 11 9 6 2 3 4 8 6 8 16 12 15 13 11 12 12 10 15 16 15 14 14 14 14 12 11 10 10 9 8 6 6 6 7 8 8 7 6 6 5 4 4 5 6 7
11 10 15 9 9 12 6 3 8 5 13 9 9 7 14 16 12 10 10 9 11 8 10 15 17 16 16 14 13 11 10 10 9 8 6 7 5 6 8 9 5 4 2 2 3 4 6 9 9
18 11 6 7 9 11 7 5 3 7 8 5 6 8 19 17 14 10 9 8 8 8 6 9 10 11 13 17 14 13 12 11 10 8 9 8 10 12 14 7 6 5 6 8 6 7 11 11 12
9 8 11 11 10 11 8 5 8 5 9 8 9 19 18 15 12 11 9 8 9 7 8 7 9 9 4 7 17 17 14 14 13 9 3 4 8 1 3 6 8 8 11 12 10 12 14 12 13
6 9 9 8 8 6 7 11 5 6 7 12 13 14 15 14 11 10 11 11 9 8 5 10 7 5 3 7 3 5 5 8 8 11 8 6 5 6 7 2 9 11 13 10 14 14 14 6 7
2 5 8 12 3 2 6 10 3 2 10 8 15 14 15 13 12 10 9 11 9 9 10 13 10 6 3 8 5 8 8 7 6 7 9 5 5 8 6 7 7 7 8 6 7 7 7 10 9
7 5 10 8 6 3 6 6 4 1 8 3 12 12 14 12 12 10 9 9 9 10 10 10 11 8 8 4 5 6 3 7 6 4 11 7 4 4 5 4 6 7 9 7 5 7 7 8 9
9 8 9 8 7 4 5 7 6 8 13 8 7 12 11 13 13 11 7 7 9 8 9 8 11 8 11 3 7 2 5 4 6 8 9 3 4 3 4 5 5 8 9 8 8 7 6 5 8
6 7 6 6 7 7 6 7 11 10 8 11 10 7 12 12 11 11 8 6 6 6 6 11 12 9 8 5 6 3 7 2 1 5 8 3 1 5 5 5 4 8 10 10 10 9 8 4 6
9 8 9 11 10 6 8 10 14 11 10 9 13 11 9 11 10 11 8 4 4 7 6 4 7 10 7 3 5 1 8 3 4 6 6 8 5 2 4 4 5 11 11 9 5 4 5 5 5
8 9 8 9 9 2 11 12 14 12 7 8 7 9 9 7 11 10 9 5 3 6 7 6 8 7 7 6 1 6 4 3 6 8 7 11 9 9 9 7 9 13 9 6 5 5 5 4 5
13 10 4 5 9 6 9 10 9 7 3 8 10 10 11 9 9 11 14 11 10 9 6 6 10 10 7 4 3 3 3 5 5 3 9 10 8 11 11 10 11 12 5 5 5 6 5 5 6
10 7 7 12 7 3 9 10 3 9 6 3 4 3 6 18 16 15 11 9 7 7 13 12 9 5 3 3 4 5 5 4 4 9 12 10 7 11 10 8 7 10 5 6 7 6 8 7 5
6 6 6 5 6 3 10 9 10 6 6 5 6 6 15 15 14 13 12 11 9 8 7 8 9 8 7 4 2 1 1 2 2 6 6 8 10 10 12 8 5 6 5 6 6 7 7 5 5
5 5 9 8 11 10 12 11 12 9 4 9 11 11 14 12 12 11 12 9 7 8 8 8 7 7 6 7 4 5 4 3 3 5 4 7 14 15 14 12 9 6 4 4 6 8 9 8 6
7 6 6 9 9 8 12 7 13 13 10 11 12 11 10 11 10 11 11 9 8 7 7 7 5 6 6 6 6 7 5 6 5 4 4 6 15 13 16 16 13 8 5 6 6 7 6 5 7
5 5 7 9 10 10 12 7 14 16 13 12 11 11 9 10 9 9 8 9 9 7 5 5 5 4 6 5 4 2 3 4 4 5 7 6 10 15 17 16 13 8 7 7 6 7 6 5 5
7 9 11 8 9 3 12 1 4 3 13 13 12 10 8 8 7 7 6 8 9 6 4 3 5 6 4 4 2 4 5 6 5 6 6 7 7 6 11 14 13 12 7 7 6 7 9 6 7
6 9 4 2 3 1 4 3 8 9 8 11 11 10 9 6 7 5 6 7 5 4 3 3 7 8 8 7 7 7 7 7 7 7 7 9 7 5 8 9 9 6 8 8 8 5 5 5 3
4 6 2 4 4 4 4 3 9 12 9 10 11 9 8 7 4 4 4 2 5 6 6 6 7 9 8 7 8 6 7 4 4 6 4 4 5 5 8 8 7 8 8 7 7 2 2 4 4
5 5 3 1 3 2 5 12 13 11 9 8 8 4 5 3 3 4 5 4 5 6 7 5 5 7 7 6 5 5 6 5 5 5 4 4 5 7 12 14 6 7 7 6 5 3 7 9 6
4 1 2 2 2 3 8 7 6 7 6 6 5 4 5 4 6 6 7 9 8 6 5 6 6 6 6 7 6 6 6 5 3 4 5 7 6 9 10 8 6 5 5 6 6 5 7 8 6
1 2 2 3 0 2 3 1 8 6 5 3 5 7 7 7 7 8 10 8 8 6 6 6 6 8 6 6 6 6 6 5 4 5 5 5 5 6 9 10 5 5 6 6 5 4 6 6 6
3 4 3 1 3 1 1 7 8 4 6 10 10 11 7 9 11 10 9 8 6 6 5 7 5 6 6 6 8 7 7 6 5 6 5 5 6 6 8 9 8 8 6 6 8 8 7 6 7
Wind_Direction
285 269 248 265 253 225 250 99 81 83 62 58 44 60 66 47 30 86 92 107 100 107 104 90 100 94 91 87 85 83 82 83 87 87 88 84 80 72 63 54 43 39 35 29 27 28 18 11 10
289 299 255 283 251 255 139 92 78 74 82 88 64 65 72 67 87 107 108 113 110 97 92 90 91 89 87 84 83 82 83 86 90 93 91 88 81 74 69 65 60 48 41 34 26 26 15 4 2
279 284 272 237 239 265 115 116 98 100 125 107 82 51 53 88 82 98 107 103 98 94 92 90 92 90 88 85 83 86 88 88 87 89 85 77 71 66 65 64 61 56 53 50 43 33 18 6 2
232 202 262 249 258 47 111 95 106 115 77 359 107 98 65 75 95 107 121 117 99 96 102 99 99 97 91 86 84 78 75 74 75 75 74 69 67 65 69 66 66 63 57 50 46 42 35 29 21
242 262 244 226 83 69 81 91 137 121 153 118 50 98 85 91 109 119 109 105 103 110 116 106 98 92 89 91 91 88 88 86 81 76 77 77 77 79 78 75 70 64 61 57 50 41 27 22 15
246 246 258 232 98 62 54 60 337 152 121 79 101 100 96 113 117 114 116 108 107 109 118 111 103 103 99 91 89 93 90 88 88 91 92 100 100 96 86 76 70 59 52 46 36 24 10 360 349
246 268 280 119 108 124 99 45 217 83 96 83 110 108 125 127 118 125 118 115 116 129 125 137 129 125 122 121 114 110 109 105 107 111 126 140 143 134 116 93 76 56 44 31 14 356 333 318 311
235 261 259 112 161 115 95 284 52 50 72 60 360 148 149 119 132 122 119 131 138 129 130 140 145 160 148 139 136 136 135 139 142 153 173 177 183 175 128 125 115 106 63 319 306 298 287 277 278
258 264 129 134 168 123 153 143 25 22 92 81 34 132 125 137 143 144 143 155 127 136 126 132 105 85 139 142 155 154 166 168 172 179 212 191 211 181 171 163 170 172 211 223 234 257 265 271 277
277 319 98 56 49 121 179 144 107 185 122 114 85 106 124 147 156 154 161 158 150 145 160 106 123 102 155 114 160 177 180 178 186 171 205 82 64 51 282 185 195 202 225 235 237 247 261 272 268
271 87 84 73 25 116 137 95 145 165 179 142 146 140 143 158 166 170 179 167 173 169 159 133 110 113 16 100 24 89 127 101 146 102 69 49 335 51 31 87 197 218 223 257 212 240 244 257 332
35 41 94 80 36 72 146 122 185 84 90 129 143 156 156 172 175 188 198 170 172 162 153 141 144 144 93 17 40 24 46 60 58 70 79 51 13 45 10 31 353 328 333 313 288 301 305 290 252
98 105 88 110 143 2 59 128 55 196 103 113 125 155 157 175 178 195 209 164 172 169 155 166 144 147 143 136 63 68 339 87 50 85 87 58 7 55 10 342 333 334 318 314 329 329 316 324 310
123 140 134 148 132 140 205 135 211 163 142 179 156 163 168 176 189 181 204 187 152 163 164 155 149 154 145 145 92 48 162 127 191 99 90 75 15 25 310 351 316 317 319 328 316 277 263 257 258
142 158 157 168 151 151 230 227 212 135 191 170 175 204 178 182 185 163 183 183 189 169 155 119 171 146 118 132 139 185 99 71 325 116 144 149 292 356 334 310 294 287 310 317 300 290 288 280 271
198 229 198 158 165 171 212 246 186 150 172 204 187 203 208 173 175 152 146 154 153 221 62 174 129 113 111 177 125 192 115 79 292 224 180 181 189 262 298 316 313 309 319 302 296 296 284 281 277
213 231 182 151 180 197 209 284 136 171 196 249 254 189 190 198 166 149 147 132 71 37 34 22 92 103 136 139 176 129 105 218 272 10 321 50 20 16 7 331 310 316 305 289 288 288 270 275 290
316 218 146 203 151 208 271 258 158 94 300 264 249 215 182 187 182 118 70 45 38 49 35 40 52 37 35 47 98 275 176 222 238 277 62 48 357 24 357 328 314 311 306 298 300 307 309 294 282
334 5 334 89 90 337 258 276 48 43 263 225 213 69 80 82 66 65 73 75 76 51 48 71 69 71 338 28 20 16 18 11 358 12 48 24 7 14 345 317 331 327 321 319 317 314 309 300 294
316 338 314 47 67 296 280 232 102 73 358 73 89 99 91 87 86 83 72 64 58 60 66 74 69 37 31 45 45 81 345 289 273 272 50 11 37 354 327 325 303 298 306 311 310 311 307 301 300
253 327 23 331 325 268 268 262 128 117 106 98 87 91 95 99 104 98 88 81 70 61 62 73 76 77 52 359 32 16 339 336 355 8 347 15 12 349 326 340 332 320 316 314 318 302 295 305 310
323 36 321 290 281 286 179 291 143 147 137 112 97 82 84 89 86 97 100 94 82 71 60 71 49 58 56 56 13 17 340 359 347 346 350 9 352 2 349 344 335 333 323 317 298 312 315 324 342
15 340 296 286 274 274 264 236 142 152 155 132 118 99 78 62 80 93 100 100 95 96 78 33 349 88 100 58 46 17 358 336 342 349 359 346 12 351 348 339 340 338 322 296 325 30 23 19 8
308 268 249 258 250 269 263 288 59 155 135 137 115 97 96 113 110 99 111 132 124 116 102 22 328 355 24 113 47 337 357 1 358 360 1 6 349 334 335 339 324 304 355 35 38 35 44 45 36
301 321 276 286 193 308 3 289 94 123 82 125 124 118 90 67 51 62 66 47 82 81 13 31 7 342 347 20 32 33 31 18 15 12 5 351 331 339 323 338 357 355 54 44 46 54 46 30 345
346 313 49 325 358 333 281 302 117 111 101 96 86 98 130 124 125 88 56 37 29 23 6 15 10 349 350 19 18 35 31 29 23 15 352 325 336 322 315 335 337 54 46 32 24 46 2 270 241
353 56 357 246 33 308 263 99 105 118 124 128 113 123 115 89 54 69 29 60 47 16 36 18 2 326 5 11 26 26 31 24 24 359 332 296 330 343 350 345 39 21 25 9 352 300 282 285 292
42 7 309 21 318 314 336 8 71 172 155 72 233 96 22 347 28 17 15 28 21 15 17 20 14 0 359 13 23 8 351 357 359 293 306 21 357 340 330 329 351 353 329 325 305 305 325 324 326
124 61 5 326 335 302 312 7 42 0 69 51 355 343 19 26 10 15 32 37 26 10 12 355 353 7 5 3 348 347 333 326 296 29 14 359 333 321 309 313 328 320 307 309 310 286 276 283 281
359 3 325 109 317 228 236 273 300 49 19 7 359 14 359 38 32 23 11 4 355 338 323 334 10 12 345 352 347 330 321 321 34 9 0 316 291 310 314 314 317 292 281 271 271 273 256 260 282